FENGYUN 1C DEB, 38728

Orbit data source: Space-Track

FENGYUN 1C DEB, 38728 is space debris in SSO originally from a launch on Mon, 10 May 1999 UTC launched from the Taiyaun Space Center, China (TSC). Fengyun 1C debris stems from the Chinese weather satellite Fengyun-1C, which was intentionally destroyed by a Chinese anti-satellite missile in 2007. This event dramatically increased the amount of space debris, with thousands of trackable fragments posing hazards to satellites and human spaceflight. The Fengyun 1C debris cloud has become a focal point in discussions about space sustainability and the need for international regulations to prevent the creation of new debris.

Loading next visibility...
Identifier
38728, 1999-025ETV
Orbit
SSO
Country
Flag of CNCN / PRC
Related business
Manufacturer
Unknown
Mission
Spacecraft
Bus & Motor
Unknown
Mass
Unknown
Launch date (UTC)
1999-05-10 (27 years ago)
Launch vehicle
Unknown
Launch site
Taiyaun Space Center, China (TSC)
Object type
Payload
Rocket body
Debris
Shape & HBR
Unknown shape, 0.1 m
Radar Cross Section
Small (<0.1 m²)

Expand to show TLE details & history
Last TLE update: 2 days ago

TLE from 2 days ago
0 FENGYUN 1C DEB
1 38728U 99025ETV 25352.20316181  .00007408  00000-0  11739-2 0  9994
2 38728  99.2585 340.2802 0075074  38.2663  24.4324 14.70670861656914
Epoch: 2025-12-18T04:52Z
TLE epoch observation values (Epoch: 2025-12-18T04:52:33.180Z)
Latitude
61.72199°
Longitude
162.53952°
Altitude
621.412 km
Speed
7.58 km/s
True Right ascension
21h 30m 57s
True Declination
61° 34' 32"
Sunlit
Object was in daylight at epoch
Visualization orbit readout
Latitude
Unknown
Longitude
Unknown
Altitude
Unknown
Speed
Unknown
Apparent Right ascension
Unknown
Apparent Declination
Unknown
Sunlit
N/A
Visualization observer readout
Local Sidereal Time
01:12:28
Azimuth
Unknown
Elevation
Unknown
Doppler factor
Unknown
Orbital elements
Apogee altitude
708.854 km
Perigee altitude
603.238 km
Semi-major axis
7,034.183 km
Eccentricity
0.00751
Inclination
99.2585°
RAAN
340.2802°
Arg. of periapsis
38.2663°
True anomaly
24.79129°
Mean anomaly
24.4324°
Eccentric anomaly
24.61154°
Mean motion
3.67894 °/min
Orbital period
97.85 mins
BSTAR
0.0011739
Loading maneuver chart data...
Computing Atmospheric mass density...

Documentation

Showing up to 5 results
|